TUBIN
1 48900U 21059X   25232.53584399  .00052097  00000-0  49351-3 0  9996
2 48900  97.6772  47.9567 0002212 318.8659  41.2434 15.66797821231282
LEDSAT
1 49069U 21073D   25232.20952210  .00131810  00000-0  99305-3 0  9999
2 49069  97.3831 317.2549 0008479 177.4493 182.6815 15.72068804222643
CUTE
1 49263U 21088D   25232.47862248  .00025075  00000-0  44782-3 0  9995
2 49263  97.4479 310.9592 0005663 343.0373  17.0688 15.50019395215554
TeikyoSat 4
1 49396U 21102B   25232.55719091  .00001503  00000-0  10181-3 0  9991
2 49396  97.4061 268.3813 0010967 243.0398 116.9711 15.07904456207391
Z-Sat
1 49399U 21102E   25232.56152118  .00003494  00000-0  19035-3 0  9994
2 49399  97.3759 271.9370 0017121 209.2086 150.8191 15.14929715207877
KOSEN 1
1 49402U 21102H   25232.59178369  .00006829  00000-0  30890-3 0  9995
2 49402  97.3659 275.9384 0015741 180.6077 179.5142 15.21124223208232
HO-113
1 50466U 21131B   25232.56558373  .00000401  00000-0  13900-3 0  9996
2 50466  98.5095 321.5662 0002968 282.1888  77.8968 14.40885255191813
SNUGLITE 2
1 52899U 22065F   25232.35768090  .00001021  00000-0  20675-3 0  9997
2 52899  98.1782  13.6750 0006482 243.9992 116.0543 14.63358780166985
UmKA 1 (RS40S)
1 57172U 23091G   25232.56698726  .00006165  00000-0  32293-3 0  9990
2 57172  97.5531 287.5840 0015729  87.1894 273.1139 15.16061059118380
CubeBel-2 (EU11S)
1 57175U 23091K   25232.59609801  .00009144  00000-0  42075-3 0  9991
2 57175  97.5531 289.2197 0013397  93.1445 267.1323 15.20479102118492
ENSO
1 58470U 23185J   25232.56040019  .00085287  00000-0  88615-3 0  9993
2 58470  97.3675 310.3735 0006930 176.0863 184.0451 15.64319921 96250
EIRSAT-1
1 58472U 23185L   25232.47367876  .00447964  80949-4  12570-2 0  9992
2 58472  97.3582 314.0605 0007797 227.2440 132.8180 15.93519007 96493
SONATE-2
1 59112U 24043Q   25232.31530293  .00019815  00000-0  53270-3 0  9995
2 59112  97.5209   5.0728 0010184 213.1726 146.8881 15.37885824 81354
MO-122
1 60209U 24125G   25232.56992480  .00018314  00000-0  48301-3 0  9994
2 60209  97.2723  83.4686 0016424 234.6918 125.2792 15.38402508 63018
GRBBeta
1 60237U 24128C   25232.25986889  .00004720  00000-0  35123-3 0  9994
2 60237  61.9901 189.5315 0056188  72.8486 287.8747 15.03156484 60973
Curium One
1 60242U 24128H   25232.56808140  .00008174  00000-0  55208-3 0  9990
2 60242  61.9800 185.6245 0056343  69.4877 291.2250 15.06020975 61073
ROBUSTA-3A
1 60243U 24128J   25232.59386463  .00007982  00000-0  54782-3 0  9995
2 60243  61.9871 186.6104 0055438  67.0508 293.6421 15.05493865 61062
CatSat
1 60246U 24125J   25232.58346216  .00018594  00000-0  58711-3 0  9993
2 60246  97.2534  81.8470 0040684 195.1326 164.8703 15.32056969 61009
HYPERVIEW-1G (RS66S)
1 61772U 24199AP  25232.56231605  .00022006  00000-0  58542-3 0  9997
2 61772  97.3429 101.3628 0010671 297.5666  62.4495 15.38180952 88015
AO-123
1 61781U 24199AY  25232.57978350  .00006956  00000-0  24737-3 0  9998
2 61781  97.3450  99.4161 0013929 306.5134  53.4822 15.29212554 87880
ZIMSAT 2
1 61783U 24199BA  25232.58273267  .00043329  00000-0  89297-3 0  9993
2 61783  97.3394 102.6504 0009266 289.6053  70.4196 15.45739447 91259
HADES-R (SO-124)
1 62690U 25009CK  25232.16205040  .00047100  00000-0  14316-2 0  9990
2 62690  97.4059 312.9018 0003706 186.7497 173.3696 15.33894566 33103
HYDRA-T
1 62692U 25009CM  25232.19804017  .00047676  00000-0  14310-2 0  9996
2 62692  97.4080 313.0054 0003649 181.8995 178.2235 15.34290532 33114
JINJUSat 1B
1 63210U 25052A   25232.61900571  .00010878  00000-0  47828-3 0  9995
2 63210  97.4321 125.8609 0006286  78.9232 281.2710 15.22046894 24204
NUSHSAT 1
1 63211U 25052B   25232.27102991  .00013848  00000-0  60104-3 0  9990
2 63211  97.4307 125.5408 0006339  82.9663 277.2294 15.22428145 24154
TEVEL2-4
1 63213U 25052D   25232.43152315  .00013044  00000-0  57248-3 0  9998
2 63213  97.4227 125.4623 0005624  94.9515 265.2363 15.22065946 24172
TEVEL2-5
1 63214U 25052E   25232.43327638  .00012891  00000-0  56635-3 0  9999
2 63214  97.4227 125.4604 0005608  94.5134 265.6743 15.22033452 24170
TEVEL2-6
1 63215U 25052F   25232.43730101  .00012979  00000-0  57084-3 0  9999
2 63215  97.4231 125.4576 0005600  95.4276 264.7599 15.21994123 24172
TEVEL2-1
1 63217U 25052H   25232.59060544  .00012438  00000-0  55103-3 0  9995
2 63217  97.4200 125.5069 0005679 103.3671 256.8199 15.21755074 24192
TEVEL2-3
1 63218U 25052J   25232.26200679  .00013992  00000-0  61935-3 0  9991
2 63218  97.4204 125.1841 0005698 104.5862 255.6006 15.21755661 24148
TEVEL2-2
1 63219U 25052K   25232.45973830  .00013326  00000-0  59022-3 0  9994
2 63219  97.4203 125.3775 0005737 104.2216 255.9657 15.21747631 24176
TEVEL2-9
1 63237U 25052AD  25232.45169632  .00012546  00000-0  57636-3 0  9993
2 63237  97.4267 125.2160 0009875 117.7749 242.4489 15.20478126 24151
TEVEL2-7
1 63238U 25052AE  25232.25982253  .00012216  00000-0  56267-3 0  9997
2 63238  97.4266 125.0177 0009896 118.4985 241.7248 15.20395171 24120
TEVEL2-8
1 63239U 25052AF  25232.59239024  .00011439  00000-0  52749-3 0  9993
2 63239  97.4265 125.3353 0009917 117.7491 242.4751 15.20369582 24176
HYDRA-W
1 63490U 25052BL  25232.20634571  .00032763  00000-0  12451-2 0  9994
2 63490  97.4209 125.7392 0013731 116.0416 244.2238 15.26641426 24174
HADES-ICM (SO-125)
1 63492U 25052BN  25232.44269800  .00030259  00000-0  11726-2 0  9993
2 63492  97.4223 125.8937 0013876 118.5194 241.7443 15.26008082 24207
